MMS 2 (40483 NORAD) Tracking and Keplerian Element Data

This shows tracking and keplerian element data for the satellite.

Feedback or suggestion? Click here.




ElementValue
Catalog40483
NameMMS 2
Epoch Orbit1097
Epoch Day92.11458333
Epoch Year2020
RAAN120.2386
Inclination26.0993
Eccentricity0.8708265
Argument of Perigee19.4279
Mean Anonmoly45.7154
Mean Motion0.28558458
Decay Rate-6.57E-06
L11 40483U 15011B 20092.11458333 -.00000657 00000-0 00000+0 0 9996
L22 40483 26.0993 120.2386 8708265 19.4279 45.7154 0.28558458 10978

Live tracking and technical data element details for MMS 2 (NORAD 40483). MMS 2 can be tracked NOW for your location showing map with azimuth and elevation plus other details from your city location.

Track the satellite on the map from your city or location and see movement details for azimuth, elevation, latitude, longitude, range, height, and movement on the map or in text.







IsCatalogInMostPopularTable: catalog: 40483, numindb: 376
Update: records affected: 1



GetName: 40483 MMS 2

Hit Count: updated at: Fri, 03 Apr 2020 08:48:00 GMT